Consulta los datos en tiempo real de la estación municipal de Arbúcies
| Hora UTC | 12:30 |
|---|---|
| Temperatura | 19.7 ºC |
| Humedad | 65.8 % |
| Presión | 1018.0 hPa |
| Pluja | 0.1 mm |
| Velocidad viento | 0.7 km/h |
| Dirección viento | NNE |
| Radiación solar | 212.6 W/m² |
| Temperatura (ºC) | Humedad (%) | Presión (hPa) | Velocidad viento (km/h) | Precipitación (mm) | Radiación solar (W/m²) | |||||||||||||
|---|---|---|---|---|---|---|---|---|---|---|---|---|---|---|---|---|---|---|
| Hora UTC | Aire | Humedad | Presión | Vel. | Dir. | Vel. Max | Dir. | Intent. máx 5 min. | Rad. Sol. | |||||||||
| 00:05 | 12.9 | 91.9 | 1021.0 | 0.0 | W | 0.4 | W | 0.0 | 0.0 | |||||||||
| 00:10 | 12.9 | 92.0 | 1021.0 | 0.0 | WSW | 0.4 | WSW | 0.0 | 0.0 | |||||||||
| 00:15 | 12.8 | 91.9 | 1021.0 | 0.0 | SW | 0.4 | SW | 0.0 | 0.0 | |||||||||
| 00:20 | 12.7 | 92.0 | 1021.0 | 0.0 | SW | 0.4 | SW | 0.0 | 0.0 | |||||||||
| 00:25 | 12.7 | 92.1 | 1022.0 | 0.0 | WSW | 0.4 | SW | 0.0 | 0.0 | |||||||||
| 00:30 | 12.7 | 92.1 | 1021.0 | 0.0 | SW | 0.4 | W | 0.0 | 0.0 | |||||||||
| 00:35 | 12.7 | 92.2 | 1021.0 | 0.0 | SW | 0.4 | S | 0.0 | 0.0 | |||||||||
| 00:40 | 12.6 | 92.2 | 1021.0 | 0.0 | WSW | 0.4 | WSW | 0.0 | 0.0 | |||||||||
| 00:45 | 12.6 | 92.4 | 1021.0 | 0.0 | SSW | 0.4 | SSW | 0.0 | 0.0 | |||||||||
| 00:50 | 12.6 | 92.3 | 1021.0 | 0.0 | WSW | 0.4 | SSW | 0.0 | 0.0 | |||||||||
| 00:55 | 12.5 | 92.3 | 1022.0 | 0.0 | WSW | 0.4 | WNW | 0.0 | 0.0 | |||||||||
| 01:00 | 12.4 | 92.4 | 1021.0 | 0.0 | SSW | 0.4 | SSW | 0.0 | 0.0 | |||||||||
| 01:05 | 12.4 | 92.4 | 1021.0 | 0.0 | SW | 0.4 | SSW | 0.0 | 0.0 | |||||||||
| 01:10 | 12.3 | 92.5 | 1021.0 | 0.0 | WSW | 0.4 | W | 0.0 | 0.0 | |||||||||
| 01:15 | 12.3 | 92.6 | 1021.0 | 0.0 | SSW | 0.4 | SW | 0.0 | 0.0 | |||||||||
| 01:20 | 12.4 | 92.6 | 1021.0 | 0.0 | SW | 0.4 | W | 0.0 | 0.0 | |||||||||
| 01:25 | 12.3 | 92.5 | 1021.0 | 0.0 | SSW | 0.4 | SW | 0.0 | 0.0 | |||||||||
| 01:30 | 12.3 | 92.6 | 1020.0 | 0.0 | ENE | 0.4 | ENE | 0.0 | 0.0 | |||||||||
| 01:35 | 12.3 | 92.6 | 1020.0 | 0.0 | SW | 0.4 | ENE | 0.0 | 0.0 | |||||||||
| 01:40 | 12.2 | 92.7 | 1020.0 | 0.0 | SW | 0.4 | SW | 0.0 | 0.0 | |||||||||
| 01:45 | 12.2 | 92.8 | 1020.0 | 0.0 | SW | 0.4 | SW | 0.0 | 0.0 | |||||||||
| 01:50 | 12.4 | 93.0 | 1020.0 | 0.0 | SSW | 0.7 | SSW | 0.0 | 0.0 | |||||||||
| 01:55 | 12.5 | 93.0 | 1021.0 | 0.0 | E | 0.4 | SW | 0.0 | 0.0 | |||||||||
| 02:00 | 12.4 | 92.8 | 1020.0 | 0.0 | N | 0.4 | NNE | 0.0 | 0.0 | |||||||||
| 02:05 | 12.4 | 92.9 | 1020.0 | 0.0 | SW | 0.4 | WNW | 0.0 | 0.0 | |||||||||
| 02:10 | 12.4 | 92.9 | 1020.0 | 0.0 | SW | 0.4 | SW | 0.0 | 0.0 | |||||||||
| 02:15 | 12.4 | 93.0 | 1020.0 | 0.0 | SW | 0.4 | SW | 0.0 | 0.0 | |||||||||
| 02:20 | 12.4 | 93.0 | 1020.0 | 0.0 | WSW | 0.4 | SSW | 0.0 | 0.0 | |||||||||
| 02:25 | 12.5 | 93.1 | 1021.0 | 0.0 | ESE | 0.4 | WNW | 0.0 | 0.0 | |||||||||
| 02:30 | 12.6 | 93.1 | 1020.0 | 0.0 | ENE | 0.4 | E | 0.0 | 0.0 | |||||||||
| 02:35 | 12.7 | 93.1 | 1020.0 | 0.0 | SE | 0.4 | SE | 0.0 | 0.0 | |||||||||
| 02:40 | 12.7 | 93.1 | 1020.0 | 0.0 | SW | 0.4 | SE | 0.0 | 0.0 | |||||||||
| 02:45 | 12.7 | 93.1 | 1020.0 | 0.0 | SW | 0.4 | SW | 0.0 | 0.0 | |||||||||
| 02:50 | 12.7 | 93.0 | 1020.0 | 0.0 | W | 0.4 | W | 0.0 | 0.0 | |||||||||
| 02:55 | 12.7 | 93.1 | 1021.0 | 0.0 | SSW | 0.4 | SSW | 0.0 | 0.0 | |||||||||
| 03:00 | 12.7 | 93.0 | 1020.0 | 0.0 | W | 0.4 | SSW | 0.0 | 0.0 | |||||||||
| 03:05 | 12.7 | 93.1 | 1020.0 | 0.0 | W | 0.4 | WSW | 0.0 | 0.0 | |||||||||
| 03:10 | 12.7 | 93.1 | 1020.0 | 0.0 | SW | 0.7 | SSW | 0.0 | 0.0 | |||||||||
| 03:15 | 12.8 | 93.2 | 1020.0 | 0.0 | SSE | 0.4 | S | 0.0 | 0.0 | |||||||||
| 03:20 | 12.9 | 93.2 | 1020.0 | 0.0 | SE | 0.4 | SE | 0.0 | 0.0 | |||||||||
| 03:25 | 12.8 | 93.1 | 1021.0 | 0.0 | SE | 0.4 | SE | 0.0 | 0.0 | |||||||||
| 03:30 | 12.8 | 93.2 | 1020.0 | 0.0 | ENE | 0.4 | SE | 0.0 | 0.0 | |||||||||
| 03:35 | 12.9 | 93.2 | 1020.0 | 0.0 | NE | 0.4 | NE | 0.0 | 0.0 | |||||||||
| 03:40 | 12.9 | 93.2 | 1020.0 | 0.0 | NW | 0.4 | NE | 0.0 | 0.0 | |||||||||
| 03:45 | 12.9 | 93.2 | 1020.0 | 0.0 | NE | 0.4 | N | 0.0 | 0.0 | |||||||||
| 03:50 | 12.8 | 93.2 | 1020.0 | 0.0 | N | 0.4 | NE | 0.0 | 0.0 | |||||||||
| 03:55 | 12.9 | 93.2 | 1021.0 | 0.0 | N | 0.4 | NW | 0.0 | 0.0 | |||||||||
| 04:00 | 12.8 | 93.2 | 1020.0 | 0.0 | NW | 0.7 | WNW | 0.0 | 0.0 | |||||||||
| 04:05 | 12.8 | 93.2 | 1019.0 | 0.0 | WNW | 0.4 | WNW | 0.0 | 0.0 | |||||||||
| 04:10 | 12.8 | 93.2 | 1020.0 | 0.0 | NW | 0.4 | WNW | 0.0 | 0.0 | |||||||||
| 04:15 | 12.8 | 93.3 | 1020.0 | 0.0 | WSW | 0.4 | W | 0.0 | 0.0 | |||||||||
| 04:20 | 12.7 | 93.3 | 1020.0 | 0.0 | SSW | 0.4 | WNW | 0.0 | 0.0 | |||||||||
| 04:25 | 12.7 | 93.3 | 1020.0 | 0.0 | WSW | 0.4 | SSE | 0.0 | 0.0 | |||||||||
| 04:30 | 12.7 | 93.2 | 1019.0 | 0.0 | WNW | 0.4 | W | 0.0 | 0.0 | |||||||||
| 04:35 | 12.6 | 93.3 | 1020.0 | 0.0 | SW | 0.4 | SSW | 0.0 | 0.0 | |||||||||
| 04:40 | 12.6 | 93.3 | 1020.0 | 0.0 | WSW | 0.4 | W | 0.0 | 0.6 | |||||||||
| 04:45 | 12.6 | 93.4 | 1019.0 | 0.0 | SSW | 0.4 | SW | 0.0 | 1.9 | |||||||||
| 04:50 | 12.6 | 93.4 | 1019.0 | 0.0 | WSW | 0.4 | S | 0.0 | 3.3 | |||||||||
| 04:55 | 12.5 | 93.4 | 1021.0 | 0.0 | SW | 0.4 | W | 0.0 | 5.3 | |||||||||
| 05:00 | 12.6 | 93.5 | 1020.0 | 0.0 | SW | 0.4 | S | 0.0 | 7.9 | |||||||||
| 05:05 | 12.5 | 93.4 | 1019.0 | 0.0 | WSW | 0.4 | SW | 0.0 | 8.5 | |||||||||
| 05:10 | 12.5 | 93.4 | 1020.0 | 0.0 | SSW | 0.4 | WSW | 0.0 | 12.2 | |||||||||
| 05:15 | 12.5 | 93.5 | 1019.0 | 0.0 | SSE | 0.4 | SSE | 0.0 | 17.2 | |||||||||
| 05:20 | 12.5 | 93.5 | 1020.0 | 0.0 | ENE | 0.4 | SE | 0.1 | 34.1 | |||||||||
| 05:25 | 12.5 | 93.5 | 1020.0 | 0.0 | NNE | 0.4 | NNE | 0.0 | 40.5 | |||||||||
| 05:30 | 12.6 | 93.6 | 1020.0 | 0.0 | N | 0.4 | NE | 0.0 | 54.1 | |||||||||
| 05:35 | 12.6 | 93.6 | 1020.0 | 0.0 | NNE | 0.4 | NE | 0.0 | 69.2 | |||||||||
| 05:40 | 12.7 | 93.6 | 1020.0 | 0.0 | NW | 0.4 | NNW | 0.0 | 69.3 | |||||||||
| 05:45 | 12.8 | 93.7 | 1020.0 | 0.0 | NNW | 0.4 | NNW | 0.0 | 75.3 | |||||||||
| 05:50 | 13.0 | 93.8 | 1019.0 | 0.0 | NNW | 0.4 | NW | 0.0 | 130.3 | |||||||||
| 05:55 | 13.2 | 93.7 | 1020.0 | 0.0 | NE | 0.4 | N | 0.0 | 121.7 | |||||||||
| 06:00 | 13.2 | 93.5 | 1019.0 | 0.0 | S | 0.4 | SE | 0.0 | 156.1 | |||||||||
| 06:05 | 13.2 | 93.3 | 1019.0 | 0.0 | SSW | 0.4 | SSW | 0.0 | 172.6 | |||||||||
| 06:10 | 13.3 | 93.4 | 1020.0 | 0.0 | SW | 0.4 | WSW | 0.0 | 187.1 | |||||||||
| 06:15 | 13.5 | 93.3 | 1019.0 | 0.0 | SSW | 0.4 | SW | 0.0 | 208.6 | |||||||||
| 06:20 | 13.6 | 93.2 | 1019.0 | 0.0 | S | 0.4 | SSE | 0.0 | 220.7 | |||||||||
| 06:25 | 14.0 | 93.4 | 1020.0 | 0.0 | SE | 0.4 | S | 0.0 | 222.3 | |||||||||
| 06:30 | 14.3 | 92.8 | 1019.0 | 0.0 | E | 0.4 | ESE | 0.0 | 252.1 | |||||||||
| 06:35 | 14.6 | 92.4 | 1019.0 | 0.0 | E | 0.4 | E | 0.0 | 104.8 | |||||||||
| 06:40 | 14.3 | 91.5 | 1019.0 | 0.0 | SSW | 0.4 | SSE | 0.0 | 218.8 | |||||||||
| 06:45 | 14.4 | 92.2 | 1019.0 | 0.0 | SSW | 0.4 | SSW | 0.0 | 257.3 | |||||||||
| 06:50 | 14.7 | 91.6 | 1019.0 | 0.0 | SSE | 0.4 | SSW | 0.0 | 338.9 | |||||||||
| 06:55 | 15.0 | 91.2 | 1020.0 | 0.0 | NE | 0.4 | ESE | 0.0 | 292.2 | |||||||||
| 07:00 | 15.1 | 89.9 | 1019.0 | 0.0 | NNW | 0.4 | NE | 0.0 | 154.8 | |||||||||
| 07:05 | 15.1 | 89.4 | 1019.0 | 0.0 | NNE | 0.4 | NNE | 0.0 | 384.5 | |||||||||
| 07:10 | 15.4 | 86.6 | 1019.0 | 0.1 | E | 2.8 | ENE | 0.0 | 400.8 | |||||||||
| 07:15 | 15.9 | 83.7 | 1019.0 | 0.1 | ENE | 6.0 | E | 0.0 | 423.4 | |||||||||
| 07:20 | 16.1 | 80.9 | 1019.0 | 1.2 | ENE | 9.2 | ENE | 0.0 | 462.9 | |||||||||
| 07:25 | 16.2 | 79.8 | 1020.0 | 4.2 | ENE | 12.3 | ENE | 0.0 | 470.0 | |||||||||
| 07:30 | 16.2 | 77.7 | 1019.0 | 0.4 | E | 7.8 | ENE | 0.0 | 473.6 | |||||||||
| 07:35 | 16.5 | 75.5 | 1019.0 | 5.7 | E | 14.1 | E | 0.0 | 497.8 | |||||||||
| 07:40 | 16.7 | 73.9 | 1019.0 | 3.4 | E | 12.0 | NE | 0.0 | 525.9 | |||||||||
| 07:45 | 17.0 | 74.3 | 1019.0 | 6.2 | ENE | 14.5 | E | 0.0 | 505.2 | |||||||||
| 07:50 | 17.2 | 72.0 | 1019.0 | 2.4 | ENE | 10.9 | ENE | 0.0 | 416.9 | |||||||||
| 07:55 | 17.7 | 71.2 | 1020.0 | 2.4 | ENE | 9.5 | ENE | 0.0 | 542.2 | |||||||||
| 08:00 | 18.4 | 66.9 | 1019.0 | 0.2 | ENE | 6.4 | NE | 0.0 | 537.2 | |||||||||
| 08:05 | 18.7 | 67.4 | 1019.0 | 2.9 | NE | 10.9 | NE | 0.0 | 590.5 | |||||||||
| 08:10 | 18.6 | 66.0 | 1019.0 | 5.2 | ENE | 12.3 | ENE | 0.0 | 584.6 | |||||||||
| 08:15 | 19.0 | 65.9 | 1019.0 | 2.4 | ENE | 11.6 | ENE | 0.0 | 564.6 | |||||||||
| 08:20 | 18.8 | 64.4 | 1019.0 | 4.4 | ENE | 13.4 | ENE | 0.0 | 381.9 | |||||||||
| 08:25 | 18.5 | 66.0 | 1019.0 | 4.6 | ENE | 12.3 | ENE | 0.0 | 409.4 | |||||||||
| 08:30 | 18.8 | 67.0 | 1019.0 | 0.0 | N | 0.7 | NNE | 0.0 | 484.1 | |||||||||
| 08:35 | 19.2 | 64.5 | 1019.0 | 0.0 | SSE | 0.4 | E | 0.0 | 432.5 | |||||||||
| 08:40 | 19.4 | 64.9 | 1019.0 | 3.8 | ENE | 10.2 | NE | 0.0 | 584.0 | |||||||||
| 08:45 | 19.6 | 64.1 | 1019.0 | 2.7 | ENE | 9.9 | ENE | 0.0 | 568.0 | |||||||||
| 08:50 | 19.8 | 64.5 | 1018.0 | 2.1 | NE | 13.1 | ENE | 0.0 | 608.4 | |||||||||
| 08:55 | 20.0 | 63.8 | 1019.0 | 5.2 | NE | 12.3 | ENE | 0.0 | 770.6 | |||||||||
| 09:00 | 20.1 | 61.9 | 1018.0 | 1.9 | ENE | 9.2 | E | 0.0 | 672.5 | |||||||||
| 09:05 | 20.3 | 60.8 | 1019.0 | 3.8 | ENE | 9.2 | ENE | 0.0 | 763.3 | |||||||||
| 09:10 | 20.8 | 57.6 | 1018.0 | 0.2 | E | 3.2 | E | 0.0 | 898.0 | |||||||||
| 09:15 | 21.1 | 56.8 | 1019.0 | 4.9 | ENE | 12.7 | ENE | 0.0 | 819.0 | |||||||||
| 09:20 | 20.9 | 58.1 | 1019.0 | 4.6 | NE | 11.6 | ENE | 0.0 | 572.3 | |||||||||
| 09:25 | 21.1 | 61.1 | 1019.0 | 1.4 | NNE | 10.6 | ENE | 0.0 | 931.0 | |||||||||
| 09:30 | 21.5 | 59.0 | 1019.0 | 7.4 | NE | 16.9 | ENE | 0.0 | 844.0 | |||||||||
| 09:35 | 21.2 | 60.0 | 1018.0 | 4.2 | NE | 11.6 | E | 0.0 | 454.1 | |||||||||
| 09:40 | 20.9 | 60.5 | 1019.0 | 2.2 | ENE | 11.3 | NE | 0.0 | 363.9 | |||||||||
| 09:45 | 21.0 | 60.4 | 1018.0 | 5.4 | NE | 10.9 | NE | 0.0 | 462.0 | |||||||||
| 09:50 | 21.1 | 59.4 | 1018.0 | 2.3 | NE | 8.8 | NE | 0.0 | 613.5 | |||||||||
| 09:55 | 21.3 | 58.9 | 1019.0 | 2.5 | NE | 12.3 | ENE | 0.0 | 664.5 | |||||||||
| 10:00 | 21.7 | 56.5 | 1018.0 | 2.0 | ENE | 7.8 | E | 0.0 | 878.0 | |||||||||
| 10:05 | 22.0 | 55.3 | 1019.0 | 5.6 | ENE | 14.1 | E | 0.0 | 939.0 | |||||||||
| 10:10 | 22.1 | 55.2 | 1019.0 | 0.7 | ENE | 8.1 | NE | 0.0 | 974.0 | |||||||||
| 10:15 | 22.7 | 53.6 | 1019.0 | 2.7 | ENE | 10.6 | NE | 0.0 | 1049.0 | |||||||||
| 10:20 | 22.6 | 52.5 | 1018.0 | 4.5 | ENE | 17.3 | ENE | 0.0 | 632.0 | |||||||||
| 10:25 | 22.1 | 53.3 | 1019.0 | 4.1 | ENE | 14.1 | ENE | 0.0 | 712.4 | |||||||||
| 10:30 | 22.3 | 53.2 | 1018.0 | 3.9 | ENE | 15.5 | NE | 0.0 | 682.5 | |||||||||
| 10:35 | 22.3 | 53.3 | 1019.0 | 5.4 | ENE | 15.5 | ENE | 0.0 | 568.5 | |||||||||
| 10:40 | 22.0 | 54.1 | 1018.0 | 3.2 | ENE | 11.6 | ENE | 0.0 | 435.4 | |||||||||
| 10:45 | 21.8 | 54.2 | 1018.0 | 7.8 | ENE | 17.6 | ENE | 0.0 | 373.5 | |||||||||
| 10:50 | 21.6 | 55.3 | 1018.0 | 4.9 | NE | 15.2 | ENE | 0.0 | 379.3 | |||||||||
| 10:55 | 21.4 | 56.2 | 1019.0 | 2.4 | NE | 14.1 | NE | 0.0 | 378.4 | |||||||||
| 11:00 | 21.5 | 55.4 | 1018.0 | 4.2 | NE | 17.6 | NE | 0.0 | 367.7 | |||||||||
| 11:05 | 21.4 | 55.0 | 1019.0 | 2.0 | ENE | 10.9 | ENE | 0.0 | 342.2 | |||||||||
| 11:10 | 21.6 | 54.8 | 1018.0 | 2.7 | NE | 10.9 | NE | 0.0 | 326.2 | |||||||||
| 11:15 | 21.4 | 55.0 | 1018.0 | 8.6 | NE | 18.3 | ENE | 0.0 | 271.9 | |||||||||
| 11:20 | 21.2 | 55.9 | 1018.0 | 1.6 | ENE | 11.3 | ENE | 0.0 | 243.3 | |||||||||
| 11:25 | 21.0 | 56.3 | 1019.0 | 2.0 | ESE | 13.4 | SSE | 0.0 | 226.8 | |||||||||
| 11:30 | 20.8 | 57.7 | 1018.0 | 1.4 | ESE | 13.4 | ENE | 0.0 | 221.7 | |||||||||
| 11:35 | 20.6 | 59.4 | 1018.0 | 3.2 | E | 12.7 | ENE | 0.0 | 215.7 | |||||||||
| 11:40 | 20.5 | 61.0 | 1018.0 | 2.4 | NE | 11.6 | ENE | 0.0 | 211.1 | |||||||||
| 11:45 | 20.4 | 61.0 | 1018.0 | 2.4 | ENE | 11.3 | NE | 0.0 | 197.5 | |||||||||
| 11:50 | 20.4 | 61.1 | 1018.0 | 0.9 | ENE | 6.7 | ENE | 0.0 | 181.9 | |||||||||
| 11:55 | 20.5 | 60.9 | 1018.0 | 0.0 | NE | 0.4 | ENE | 0.0 | 170.9 | |||||||||
| 12:00 | 20.7 | 59.9 | 1018.0 | 0.0 | N | 0.4 | ESE | 0.0 | 145.9 | |||||||||
| 12:05 | 20.7 | 60.6 | 1018.0 | 1.2 | NNW | 10.9 | N | 0.0 | 145.0 | |||||||||
| 12:10 | 20.5 | 61.9 | 1018.0 | 0.4 | NE | 9.2 | NNE | 0.0 | 156.2 | |||||||||
| 12:15 | 20.3 | 62.7 | 1018.0 | 0.0 | NNE | 0.4 | ENE | 0.0 | 179.0 | |||||||||
| 12:20 | 20.2 | 63.2 | 1018.0 | 0.0 | NNE | 0.4 | ENE | 0.0 | 211.3 | |||||||||
| 12:25 | 20.0 | 64.3 | 1018.0 | 0.3 | NNE | 9.2 | NNW | 0.0 | 224.4 | |||||||||
| 12:30 | 19.7 | 65.8 | 1018.0 | 0.7 | NNE | 9.5 | NW | 0.0 | 212.6 | |||||||||
| Máxima | 22.7 | 93.8 | 1022.0 | 8.6 | NE | 18.3 | ENE | 0.1 | 1049.0 | |||||||||
| Mínima | 12.2 | 52.5 | 1018.0 | |||||||||||||||
| Total | 0.1 | |||||||||||||||||